[[{"header":{"parameterUnit":"m.s-1","parameterCategory":1,"la1":30.2991,"la2":30.254,"lo1":-89.0895,"lo2":-89.0444,"dy":0.0017,"dx":0.0017,"nx":28,"ny":28,"refTime":"2024-03-21T03:00:00:Z","depth":0,"parameterNumber":2,"parameterNumberName":"U-component_of_WINDS"},"data":[0,0,0,0,0,0,0,0,0,0,0,0,0,0,0,0,0,0,0,0,0,0,0,0,0,0,0,0,0,0,0,0,0,0,0,0,0,0,0,0,0,0,0,0,0,0,0,0,0,0,0,0,0,0,0,0,0,0,2.5569,2.557,0,2.5703,2.5705,2.5706,2.5698,2.5696,2.5694,2.5692,2.583,2.5835,2.584,0,0,0,0,0,0,0,0,0,0,0,0,0,2.5301,2.5306,2.5568,2.557,2.5572,2.5703,2.5705,2.5707,2.5698,2.5696,2.5694,2.5691,2.5828,2.5834,2.5841,0,0,0,0,0,0,0,0,0,0,0,0,0,2.5425,2.5308,2.5568,2.5583,2.5586,2.5703,2.5705,2.5707,2.5699,2.5696,2.5693,2.569,2.5826,2.5834,2.5842,2.5952,0,0,2.5867,2.5871,0,0,0,0,0,0,0,0,2.5418,2.5435,2.558,2.5583,2.5586,2.5681,2.5661,2.5789,2.57,2.5656,2.5692,2.5689,2.5783,2.5794,2.5826,2.5958,2.5964,2.5868,2.5873,2.5876,2.5879,0,0,0,0,0,0,0,2.5409,2.5429,2.5622,2.5582,2.5586,2.5583,2.5597,2.5685,2.5734,2.566,2.5659,2.5675,2.5784,2.5818,2.5829,2.5966,2.5868,2.5875,2.588,2.5883,2.6192,2.6195,0,0,0,0,0,0,2.5397,2.5422,2.5618,2.5626,2.5493,2.559,2.5606,2.5653,2.5733,2.5743,2.5678,2.5675,2.5805,2.5819,2.5834,2.5965,2.5876,2.5884,2.5889,2.6189,2.6193,2.6197,0,0,0,0,0,0,2.5392,2.5415,2.5612,2.5524,2.5549,2.5598,2.5651,2.5658,2.5692,2.5747,2.5755,2.5704,2.5804,2.5822,2.5922,2.597,2.5888,2.5895,2.6185,2.619,2.6195,2.6231,0,0,0,0,0,0,2.5384,2.5413,2.5456,2.5525,2.5553,2.5699,2.5654,2.5662,2.5706,2.5703,2.5774,2.5783,2.5803,2.591,2.593,2.598,2.5902,2.6181,2.6188,2.6193,2.6225,2.6236,2.6246,0,0,0,0,0,2.5375,2.5462,2.5458,2.5482,2.5608,2.5702,2.5718,2.5739,2.571,2.5753,2.5788,2.578,2.5962,2.592,2.5943,2.5996,2.6178,2.6186,2.6193,2.6221,2.6234,2.6245,0,0,0,0,0,0,2.5398,2.5471,2.5468,2.558,2.5635,2.57,2.5755,2.5753,2.5817,2.5811,2.5835,2.5851,2.595,2.5984,2.5936,2.6105,2.6066,2.6078,2.608,2.6093,2.6102,2.6091,2.5909,0,0,0,0,0,2.5416,2.5486,2.5546,2.5639,2.5666,2.5706,2.5747,2.5759,2.5816,2.5839,2.5882,2.5937,2.6006,2.6052,2.6119,2.6231,2.6244,2.6278,2.6288,2.6296,2.6306,2.6364,2.6379,2.6221,2.6221,2.6221,0,0,2.5454,2.5502,2.5545,2.5644,2.5688,2.5759,2.5725,2.5803,2.5855,2.5851,2.5947,2.598,2.6043,2.6149,2.6197,2.6179,2.6353,2.6306,2.6312,2.6317,2.6373,2.6388,2.6402,2.6226,2.6225,2.6224,0,0,2.5559,2.5604,2.5684,2.5728,2.5794,2.582,2.5839,2.5905,2.5926,2.6023,2.6021,2.6083,2.6203,2.6247,2.6285,2.6404,2.6399,2.6426,2.6478,2.6534,2.6547,2.6558,2.6597,2.6612,2.6436,2.6436,2.6436,0,2.5597,2.5704,2.5726,2.5803,2.5845,2.5845,2.5925,2.5967,2.6052,2.6081,2.606,2.6208,2.6251,2.6365,2.6393,2.6426,2.6447,2.6417,2.6543,2.6555,2.6565,2.6603,2.6619,2.6438,2.6438,2.6438,2.6438,0,2.5747,2.5821,2.5879,2.5959,2.6008,2.6087,2.6119,2.6166,2.6173,2.62,2.6297,2.6349,2.6425,2.6453,2.6461,2.6568,2.6554,2.6538,2.6499,2.6583,2.6619,2.6634,2.6442,2.6441,2.6441,2.644,0,0,2.587,2.5961,2.5981,2.6016,2.6088,2.6146,2.6223,2.6297,2.6336,2.6394,2.6458,2.6558,2.6543,2.6586,2.6599,2.665,2.6737,2.6627,2.6629,2.6643,2.6854,2.6864,2.688,2.6734,2.6737,2.674,2.6847,0,2.598,2.6118,2.6138,2.6259,2.6326,2.6326,2.6393,2.6444,2.6471,2.6531,2.6561,2.6631,2.6607,2.6632,2.6682,2.6716,2.6779,2.6709,2.6792,2.6795,2.6774,2.69,2.6911,2.701,2.6862,2.6865,2.6866,0,2.6127,2.6188,2.6315,2.6375,2.6404,2.6464,2.6532,2.659,2.6647,2.6663,2.6711,2.6717,2.6796,2.6754,2.6862,2.6813,2.6849,2.687,2.6875,2.6881,2.6834,2.6907,2.7043,2.7057,2.6889,2.6887,2.6886,0,2.6201,2.6315,2.6404,2.6435,2.6508,2.655,2.6582,2.6636,2.6678,2.6738,2.6765,2.6833,2.687,2.6922,2.6946,2.6914,2.7051,2.7012,2.7064,2.7064,2.7092,2.7089,2.7232,2.7119,2.7119,2.7118,2.7118,0,2.632,2.6397,2.6438,2.6493,2.6578,2.6601,2.6684,2.6716,2.6763,2.6823,2.6828,2.6884,2.6913,2.6973,2.6993,2.7077,2.7094,2.7108,2.7112,2.7106,2.7104,2.7128,2.7121,2.7122,2.7121,2.7121,2.712,0,2.6416,2.6447,2.6544,2.6605,2.6622,2.6682,2.6733,2.6786,2.6812,2.6888,2.6907,2.6948,2.7019,2.7048,2.7136,2.7148,2.7244,2.7244,2.7225,2.7225,2.7275,2.7269,2.7437,2.7458,2.7333,2.7334,2.7335,0,2.6489,2.6548,2.6614,2.6654,2.6688,2.6753,2.6796,2.682,2.6864,2.6931,2.6975,2.7046,2.7103,2.7216,2.7253,2.7319,2.7319,2.7374,2.7329,2.7321,2.7317,2.7312,2.7316,2.7381,2.7382,2.7383,2.7384,0,2.6614,2.6626,2.6687,2.6753,2.6803,2.6857,2.6909,2.6941,2.6973,2.7022,2.7094,2.7138,2.7226,2.7295,2.7363,2.7395,2.7394,2.7398,2.7413,2.7407,2.7392,2.7397,2.7244,2.7393,2.7393,2.7392,2.7391,2.7391,2.6699,2.675,2.6804,2.6871,2.6912,2.696,2.7012,2.7044,2.7104,2.7177,2.7188,2.7264,2.7317,2.7408,2.7443,2.7502,2.7488,2.7511,2.7516,2.752,2.7522,2.7384,2.7515,2.7514,2.7514,2.7514,2.7514,0,2.6822,2.6856,2.6918,2.6989,2.7041,2.7036,2.7093,2.7137,2.7203,2.7253,2.7309,2.739,2.7457,2.7499,2.7565,2.7604,2.7605,2.7621,2.7617,2.7624,2.7532,2.7511,2.7619,2.7619,2.7619,2.7619,2.7619,2.7618,2.6892,2.6977,2.6994,2.7099,2.7133,2.7207,2.7239,2.7283,2.7322,2.7412,2.7467,2.7494,2.754,2.761,2.767,2.768,2.7703,2.7719,2.7728,2.7642,2.7631,2.762,2.76,2.7725,2.7725,2.7815,2.7816,2.7816]},{"header":{"parameterUnit":"m.s-1","parameterCategory":1,"la1":30.2991,"la2":30.254,"lo1":-89.0895,"lo2":-89.0444,"dy":0.0017,"dx":0.0017,"nx":28,"ny":28,"refTime":"2024-03-21T03:00:00:Z","depth":0,"parameterNumber":3,"parameterNumberName":"V-component_of_WINDS"},"data":[0,0,0,0,0,0,0,0,0,0,0,0,0,0,0,0,0,0,0,0,0,0,0,0,0,0,0,0,0,0,0,0,0,0,0,0,0,0,0,0,0,0,0,0,0,0,0,0,0,0,0,0,0,0,0,0,0,0,1.6049,1.6049,0,1.6059,1.6059,1.6059,1.602,1.6019,1.6017,1.6016,1.6028,1.6029,1.603,0,0,0,0,0,0,0,0,0,0,0,0,0,1.5995,1.5997,1.6049,1.6049,1.6049,1.6059,1.6059,1.6059,1.602,1.6019,1.6017,1.6016,1.6027,1.6029,1.6031,0,0,0,0,0,0,0,0,0,0,0,0,0,1.6013,1.5997,1.6049,1.6031,1.6029,1.6059,1.6059,1.6059,1.602,1.6019,1.6017,1.6015,1.6027,1.6029,1.6031,1.6079,0,0,1.6037,1.6038,0,0,0,0,0,0,0,0,1.6013,1.6016,1.6033,1.6032,1.603,1.6036,1.6044,1.6066,1.6021,1.6024,1.6016,1.6014,1.6032,1.6034,1.6039,1.608,1.608,1.6037,1.6039,1.604,1.604,0,0,0,0,0,0,0,1.6011,1.6015,1.6053,1.6034,1.6032,1.6022,1.6023,1.6048,1.6038,1.6023,1.6021,1.6022,1.6031,1.6037,1.6039,1.608,1.6037,1.6039,1.604,1.6041,1.6158,1.6159,0,0,0,0,0,0,1.6012,1.6014,1.6053,1.6053,1.6017,1.6024,1.6025,1.6036,1.6037,1.6036,1.6024,1.602,1.6035,1.6037,1.604,1.6094,1.604,1.6042,1.6043,1.6156,1.6158,1.616,0,0,0,0,0,0,1.6011,1.6016,1.6052,1.6033,1.6037,1.6027,1.604,1.6037,1.6044,1.6038,1.6035,1.6032,1.6033,1.6037,1.6069,1.6094,1.6042,1.6044,1.6154,1.6156,1.6159,1.6206,0,0,0,0,0,0,1.601,1.6016,1.6035,1.6034,1.6038,1.6082,1.6042,1.6039,1.6047,1.6043,1.6045,1.6044,1.6032,1.6066,1.6071,1.6096,1.6046,1.6151,1.6155,1.6158,1.6202,1.621,1.6216,0,0,0,0,0,1.6008,1.6048,1.6036,1.6041,1.6061,1.6083,1.6086,1.6072,1.605,1.6068,1.6063,1.6044,1.6091,1.607,1.6075,1.6101,1.615,1.6154,1.6158,1.6199,1.6208,1.6216,0,0,0,0,0,0,1.6054,1.6048,1.6034,1.6075,1.608,1.6077,1.61,1.6083,1.6094,1.609,1.6072,1.6073,1.6108,1.6108,1.6084,1.6147,1.6116,1.6122,1.6145,1.6155,1.6162,1.6161,1.6048,0,0,0,0,0,1.6069,1.6087,1.6081,1.6118,1.6121,1.611,1.6119,1.6107,1.6112,1.6114,1.6112,1.6117,1.6133,1.6144,1.6158,1.6201,1.62,1.6222,1.6229,1.6235,1.624,1.6261,1.627,1.6174,1.6173,1.6173,0,0,1.61,1.6098,1.6112,1.6127,1.6129,1.6148,1.6112,1.6134,1.6148,1.6117,1.6147,1.6146,1.615,1.6188,1.6204,1.6189,1.6266,1.6241,1.6245,1.6247,1.6266,1.6276,1.6284,1.6176,1.6176,1.6175,0,0,1.6165,1.6167,1.6196,1.6199,1.6202,1.6194,1.6201,1.62,1.6198,1.6227,1.6204,1.622,1.6248,1.6251,1.6257,1.6321,1.6303,1.6326,1.6364,1.6385,1.6393,1.6399,1.6421,1.6429,1.6331,1.6331,1.6331,0,1.6203,1.6231,1.6214,1.6237,1.6244,1.6216,1.6245,1.6248,1.6257,1.6262,1.6244,1.6277,1.6278,1.6315,1.6331,1.6336,1.6343,1.6326,1.6393,1.6399,1.6405,1.6426,1.6434,1.6334,1.6334,1.6333,1.6333,0,1.6277,1.6297,1.632,1.6327,1.6337,1.6363,1.6349,1.6361,1.6347,1.6341,1.637,1.637,1.6383,1.6391,1.6379,1.6426,1.6416,1.6396,1.6365,1.6418,1.6436,1.6444,1.6338,1.6337,1.6336,1.6335,0,0,1.6374,1.6369,1.6378,1.638,1.638,1.6395,1.6419,1.6431,1.644,1.6446,1.6466,1.6489,1.6469,1.6476,1.6464,1.6482,1.6531,1.6459,1.6459,1.6472,1.658,1.6595,1.6604,1.6518,1.652,1.6521,1.6579,0,1.6437,1.6478,1.6462,1.6504,1.6521,1.6493,1.6514,1.6516,1.651,1.6523,1.6517,1.6533,1.6507,1.651,1.6527,1.6521,1.6552,1.6517,1.6536,1.6536,1.6535,1.6614,1.663,1.6685,1.6587,1.6588,1.6589,0,1.6517,1.6525,1.6568,1.6563,1.657,1.6589,1.6597,1.661,1.6611,1.6606,1.6611,1.6595,1.6617,1.6586,1.6617,1.6593,1.6599,1.6597,1.6599,1.66,1.6566,1.6617,1.6703,1.6711,1.6601,1.66,1.6599,0,1.6582,1.6603,1.6631,1.6633,1.6629,1.6643,1.6642,1.6641,1.6648,1.6655,1.6659,1.667,1.6675,1.6683,1.6669,1.6648,1.67,1.6669,1.6696,1.6696,1.6708,1.6708,1.6796,1.6714,1.6714,1.6713,1.6713,0,1.6654,1.6681,1.6659,1.6677,1.6706,1.6687,1.6716,1.6712,1.6711,1.6727,1.6703,1.6718,1.6699,1.6712,1.6701,1.6727,1.673,1.6726,1.6722,1.6727,1.6728,1.6731,1.6727,1.6716,1.6715,1.6715,1.6714,0,1.6731,1.6718,1.6746,1.6739,1.6737,1.6759,1.6752,1.6768,1.6759,1.6779,1.6783,1.677,1.6783,1.677,1.6784,1.6776,1.681,1.6802,1.681,1.6807,1.6834,1.6832,1.6928,1.6939,1.685,1.6851,1.6852,0,1.6778,1.6798,1.6792,1.68,1.68,1.6814,1.682,1.6802,1.6809,1.6811,1.6826,1.6837,1.6846,1.6869,1.6861,1.687,1.6861,1.6894,1.6863,1.6866,1.686,1.6859,1.686,1.6901,1.6902,1.6903,1.6903,0,1.6863,1.6854,1.6864,1.6871,1.6879,1.6884,1.6887,1.6895,1.6876,1.6886,1.6899,1.6905,1.6917,1.6929,1.6935,1.6934,1.6915,1.6913,1.692,1.6925,1.6928,1.6926,1.6826,1.6911,1.691,1.691,1.6909,1.6909,1.6925,1.6941,1.6938,1.6949,1.6949,1.6952,1.6965,1.6958,1.6968,1.6976,1.6965,1.6981,1.6979,1.6986,1.6987,1.6999,1.6985,1.6995,1.6997,1.6999,1.7003,1.6926,1.7,1.7,1.6999,1.6999,1.6999,0,1.7007,1.7003,1.7014,1.7018,1.7026,1.7007,1.7009,1.7017,1.7031,1.7031,1.7039,1.7053,1.7064,1.7055,1.7064,1.7075,1.7066,1.7078,1.7076,1.7076,1.7016,1.7009,1.7084,1.7084,1.7084,1.7084,1.7084,1.7084,1.7051,1.7075,1.7066,1.709,1.7086,1.7101,1.7103,1.7105,1.7105,1.7122,1.713,1.7124,1.712,1.7128,1.7136,1.7133,1.7137,1.7151,1.7145,1.7089,1.7081,1.7073,1.7066,1.7152,1.7152,1.7204,1.7205,1.7205]}]]